Theta_e
353 352 349 348 351 350 342 338 319 329 326 315 318 321 320 332 332 331 328 333 329 337 339 339 336 336 333 328 333 335 336 332 332 319 318 338 352 353 353 356 356 357 356 357 359 359 359 358 358 359 359 360 359 359 363 364 365 365 365 365 364 364 364 364 365 364 363 364 364 364 364 364 364 364 363 362 363 363 362 361 360 361 360 360 361 361 362 362 361 361 362 362 362 363 363 363 362
350 349 350 353 349 346 331 341 323 321 320 317 320 324 325 331 332 327 329 331 331 332 336 335 334 335 335 333 335 337 335 339 339 337 342 348 352 353 355 356 355 354 355 357 358 358 357 357 358 359 359 360 361 363 365 365 365 365 365 365 365 365 365 364 364 364 363 363 363 363 363 363 364 363 361 362 362 363 363 362 362 361 361 361 360 361 361 362 363 362 361 361 361 362 363 362 362
347 348 349 350 347 349 341 340 317 319 315 312 319 322 331 328 328 333 333 333 334 335 336 335 336 336 333 334 331 332 327 340 340 342 342 350 344 348 355 357 356 356 357 358 357 358 358 358 359 359 359 360 362 365 365 365 365 365 365 366 365 365 365 364 364 363 363 363 362 361 362 362 363 363 363 361 361 362 363 361 361 361 361 361 361 361 361 362 361 361 361 361 360 363 362 362 362
351 356 348 343 339 341 331 328 321 317 316 317 317 327 328 328 330 334 335 335 334 334 334 333 331 336 333 328 331 337 336 337 342 342 341 345 347 350 354 356 358 356 356 357 358 358 360 361 360 359 359 362 364 364 365 365 365 365 365 364 364 364 364 363 362 362 362 362 362 361 361 362 362 363 362 361 362 361 360 361 361 361 361 361 361 361 362 362 361 361 362 361 361 363 362 362 362
353 354 351 343 338 328 328 326 322 322 315 320 317 325 330 331 331 333 335 336 335 338 336 334 331 338 339 333 336 330 332 341 342 346 344 347 353 353 355 355 354 355 355 357 359 359 361 361 361 361 362 364 364 364 364 365 365 364 364 364 364 364 363 362 363 362 363 363 361 361 361 362 362 362 362 361 362 361 361 361 360 361 361 361 360 361 361 361 361 361 361 362 361 363 362 361 361
353 351 353 348 335 345 333 323 320 320 326 328 323 324 332 334 332 333 334 337 340 338 336 335 330 330 330 332 337 333 340 332 342 344 346 346 352 353 353 354 354 354 356 358 360 360 361 363 363 363 363 364 364 364 364 365 364 364 365 364 364 364 363 362 361 362 362 362 362 361 362 362 362 362 360 361 361 362 362 361 360 361 361 361 361 360 360 360 360 361 361 361 361 362 362 362 361
348 346 348 347 343 340 323 321 322 322 326 331 327 331 334 334 333 334 334 334 337 338 337 332 334 332 328 335 338 341 345 345 342 345 349 349 351 354 354 353 354 355 356 357 359 360 362 363 364 363 364 364 364 364 365 365 364 364 363 365 364 363 362 362 361 362 362 362 362 361 362 362 362 362 361 361 362 361 360 361 361 361 361 361 361 361 361 361 361 361 361 361 362 362 362 362 362
351 347 341 330 327 330 321 324 322 325 326 333 336 332 335 334 335 335 333 331 332 331 332 334 334 331 330 339 328 340 346 347 347 350 351 350 351 353 354 356 354 353 354 356 358 361 367 364 364 363 363 364 364 364 364 364 364 364 364 364 363 363 363 362 362 362 362 361 362 361 361 362 362 362 361 361 361 360 360 361 361 360 361 361 360 361 360 360 361 361 362 362 362 362 362 362 363
352 347 348 332 322 327 322 321 323 330 329 332 335 340 338 339 336 336 334 335 334 333 332 331 332 326 328 332 332 339 343 347 349 350 350 350 351 351 351 354 353 354 356 356 360 362 362 365 364 363 364 364 364 364 364 364 364 363 363 363 362 363 363 362 362 361 361 361 361 361 362 361 361 361 361 361 360 360 360 360 361 361 360 360 360 361 360 360 361 361 362 362 363 362 362 363 363
350 347 330 328 328 318 321 322 321 326 329 335 335 337 338 339 335 338 334 331 332 333 334 335 334 329 333 330 333 337 341 347 348 348 350 352 352 351 352 354 355 356 355 356 359 361 362 367 365 364 364 364 364 364 363 364 363 362 361 362 362 362 363 362 361 361 361 360 361 360 360 360 361 361 360 360 361 360 360 361 360 360 360 360 360 360 361 360 361 361 362 361 361 362 361 361 362
335 345 344 324 321 319 318 320 323 327 330 335 338 340 340 339 339 335 336 332 335 333 334 334 330 331 332 333 334 344 347 347 346 346 350 351 352 351 351 354 355 355 353 355 357 360 362 363 367 364 364 364 364 363 364 363 362 362 362 362 362 362 361 360 360 360 361 360 361 360 361 361 361 362 360 359 360 360 360 361 360 360 360 360 360 360 360 360 360 360 361 362 361 361 361 361 362
332 331 334 320 319 320 323 321 322 327 332 334 335 340 343 337 337 334 333 330 333 332 330 333 329 336 330 330 333 341 345 345 345 348 351 352 351 351 352 354 354 354 355 356 358 359 361 363 362 366 366 365 364 363 363 362 362 362 362 361 360 361 360 359 359 359 360 360 360 360 361 361 361 361 360 360 360 360 360 360 359 359 360 360 361 361 361 361 361 361 361 361 361 363 363 362 362
333 337 330 322 323 324 327 323 324 328 328 332 333 341 345 339 336 334 335 333 333 331 332 336 337 335 327 329 337 341 341 344 347 349 350 351 351 354 352 353 354 355 355 356 356 358 361 360 361 362 364 364 363 363 362 362 362 362 361 360 358 359 360 360 358 359 360 360 360 360 361 361 361 360 360 359 359 360 359 360 360 359 360 361 361 361 361 360 361 361 362 361 362 362 363 363 362
336 335 332 324 331 326 325 324 327 324 326 332 339 342 344 339 338 337 337 331 332 332 336 337 336 335 330 331 333 336 339 344 347 349 351 353 353 354 354 353 354 354 356 357 357 358 357 359 360 361 362 361 361 362 362 362 361 362 361 359 358 358 360 360 358 360 360 360 361 360 361 362 362 361 360 360 359 359 359 359 360 360 360 360 360 361 361 362 360 361 361 361 361 361 363 363 363
337 344 332 327 327 325 326 322 321 325 323 335 339 341 341 344 340 339 336 332 333 338 340 341 338 332 324 327 328 333 338 342 346 349 349 351 352 353 354 355 355 355 355 356 356 357 358 359 360 361 361 359 360 360 361 360 362 362 361 359 358 358 359 360 360 359 360 359 360 360 361 361 361 360 361 361 360 359 357 358 358 358 358 360 360 361 364 362 361 362 362 362 362 363 363 363 363
344 339 335 324 323 324 325 326 327 325 326 336 341 343 340 341 344 337 338 341 337 341 341 332 338 331 332 331 332 337 341 343 345 348 348 348 350 351 353 353 353 354 355 354 354 357 357 358 360 360 360 361 361 359 359 359 361 361 361 361 360 358 359 361 361 360 360 360 361 361 361 360 360 359 361 359 361 359 358 356 357 357 358 359 360 361 363 363 362 362 363 363 363 363 364 364 364
348 342 326 326 320 323 328 324 328 321 331 336 341 341 335 336 344 342 347 346 336 335 337 337 335 337 333 335 338 340 341 344 346 345 346 347 347 348 350 351 352 354 355 355 356 357 358 359 360 360 360 361 359 360 358 359 360 361 360 359 361 360 360 361 362 362 361 361 360 360 359 357 358 358 358 358 359 355 357 357 357 357 356 356 360 361 363 363 364 364 364 363 363 363 363 363 363
342 333 329 324 325 324 330 328 330 334 332 336 340 341 337 334 339 341 342 340 341 339 336 336 336 337 338 339 340 341 342 342 343 342 342 342 345 346 347 349 349 348 352 353 355 356 358 360 360 360 360 360 361 361 359 358 359 360 359 359 360 360 360 361 360 359 361 358 359 357 355 356 355 355 358 358 354 355 355 356 356 357 356 355 359 361 363 364 365 365 364 363 363 363 362 359 362
338 328 330 325 329 329 336 335 335 333 333 338 340 342 339 336 341 340 335 333 337 335 333 333 333 336 338 339 339 339 341 341 341 342 341 341 341 342 345 348 349 349 352 353 354 355 358 359 359 358 359 360 361 361 360 359 358 360 359 359 360 360 361 361 360 360 358 357 357 358 354 354 355 354 356 355 355 357 354 356 356 359 360 359 361 362 363 364 364 364 364 364 364 364 365 358 360
340 332 325 329 335 335 337 338 339 342 340 339 340 339 340 341 340 342 336 333 334 332 329 331 331 332 334 336 338 339 340 340 341 342 341 341 342 342 343 345 347 349 352 353 354 357 358 357 358 360 362 362 361 360 361 359 359 359 357 358 358 360 362 360 361 361 359 358 357 357 355 355 352 354 357 357 356 355 356 360 361 360 361 362 363 362 364 364 363 362 363 364 364 363 362 366 355
337 332 326 328 334 332 338 339 342 342 341 339 339 341 338 341 340 341 337 332 333 333 334 332 331 332 335 337 338 339 339 339 340 341 341 341 342 343 344 346 348 350 351 354 355 356 356 356 359 361 362 361 362 360 360 360 360 360 360 360 360 360 360 360 360 360 360 360 360 354 353 353 352 355 355 354 358 360 360 360 361 360 362 362 363 361 360 361 361 360 359 361 363 362 360 361 362
334 331 332 334 334 333 339 342 343 340 341 342 339 336 336 341 341 339 338 331 328 332 334 336 335 336 336 336 338 339 339 339 339 340 340 340 341 341 344 346 349 350 353 350 353 356 356 357 359 359 359 359 359 359 360 360 361 360 360 361 359 359 359 360 359 361 361 361 360 355 355 352 351 351 355 354 359 360 360 360 360 361 362 361 364 362 362 364 362 360 361 360 361 361 357 360 358
328 330 332 334 336 335 339 340 343 344 340 339 338 339 342 339 338 340 336 337 337 339 337 337 338 338 339 339 339 338 339 338 339 339 340 339 340 341 343 345 346 347 349 350 352 356 358 360 361 360 359 360 359 359 359 360 361 360 360 360 359 357 357 356 360 359 359 361 359 359 353 352 352 356 355 360 358 355 355 357 359 363 360 360 361 361 360 363 362 361 362 364 364 359 358 361 359
331 327 330 331 339 334 340 339 342 343 342 338 342 344 339 337 333 340 336 339 340 340 338 338 339 340 340 337 338 337 338 338 338 340 340 340 340 341 343 344 346 348 349 350 350 355 356 359 361 360 359 358 358 360 361 362 363 361 360 363 359 358 356 356 359 358 357 359 361 361 362 361 360 360 358 360 358 356 358 357 358 356 358 359 367 365 358 360 364 367 365 363 364 361 350 358 355
331 329 330 327 328 338 340 339 343 341 340 342 343 338 338 339 336 339 338 338 338 339 338 337 339 338 337 336 336 337 337 337 337 338 341 341 342 343 343 344 345 346 346 348 350 352 357 358 360 360 360 360 360 358 360 361 361 362 359 358 354 354 353 353 355 358 358 359 360 359 359 361 361 358 356 359 362 361 361 364 364 361 360 361 362 364 363 363 364 365 366 364 363 363 363 362 360
332 332 331 333 326 334 341 340 341 339 340 342 338 336 338 340 341 337 338 340 339 340 337 336 337 336 335 335 336 336 336 336 336 337 338 340 341 341 342 343 343 344 345 348 349 351 355 358 357 358 360 360 360 357 360 360 361 356 355 355 353 353 353 354 356 357 358 356 358 358 357 360 361 359 359 363 362 362 364 358 361 360 360 362 360 361 368 366 366 366 364 363 364 363 363 367 364
333 332 333 327 326 327 348 340 339 342 342 343 336 336 337 342 339 329 341 339 338 338 336 335 335 333 333 334 335 336 335 335 335 337 337 338 339 340 341 341 342 344 346 347 349 352 355 355 359 360 361 365 362 358 360 360 360 356 358 355 354 351 354 356 354 355 356 358 357 357 358 360 361 362 359 364 364 364 364 364 361 360 359 360 364 361 364 365 366 365 364 363 363 365 363 361 362
331 331 329 327 326 328 332 339 338 340 337 342 340 336 339 341 338 331 336 340 338 336 334 333 333 333 333 334 334 336 335 336 337 337 335 336 336 339 340 339 341 343 345 346 350 355 354 354 354 359 360 362 362 359 361 356 358 360 359 361 359 356 357 358 366 360 357 356 355 356 358 359 360 365 368 365 362 362 363 364 363 365 356 365 365 363 366 364 365 364 364 366 362 364 363 363 362
330 329 322 324 326 332 338 333 337 340 338 344 343 336 333 333 330 335 338 338 337 335 333 333 332 332 332 333 333 335 334 336 336 336 335 338 338 341 338 339 341 342 345 347 350 352 352 353 354 355 356 358 360 356 354 356 357 356 359 359 361 358 356 354 356 359 362 359 357 356 361 363 364 363 368 364 364 363 364 364 362 362 363 366 366 365 364 367 365 366 366 366 367 365 362 367 364
330 327 323 322 322 327 335 338 337 339 338 342 340 319 325 331 335 339 340 336 335 333 331 331 332 332 332 332 333 335 334 336 335 336 337 338 339 340 338 339 342 343 345 347 348 349 351 354 355 355 356 356 358 354 358 355 357 358 360 358 364 363 362 359 360 362 363 366 365 365 366 369 368 369 365 365 368 362 362 363 364 364 367 368 367 369 368 364 365 364 365 367 363 363 361 362 362
322 325 325 318 316 321 334 336 336 333 341 342 339 319 323 332 336 340 338 336 334 331 331 331 331 332 332 332 332 333 333 337 335 336 338 338 340 340 338 340 341 344 346 345 346 348 350 352 353 353 356 356 355 357 355 357 358 355 357 358 360 363 359 360 359 360 363 362 364 367 368 367 368 371 367 366 362 364 360 363 366 366 366 368 369 370 368 365 365 364 365 361 361 364 360 361 357
324 318 315 319 316 323 331 336 334 329 336 340 332 321 323 331 334 338 340 338 334 331 331 332 331 333 333 332 332 333 332 334 336 336 338 338 339 339 338 340 341 344 345 345 347 347 350 351 354 353 353 354 356 358 359 361 357 361 360 359 362 366 362 359 360 359 360 364 363 366 368 368 368 370 366 369 363 363 361 363 367 367 367 369 375 372 370 365 364 363 361 360 360 353 358 355 360
321 318 315 315 317 321 325 330 334 338 335 338 331 321 325 329 335 340 342 343 334 331 331 331 331 333 333 332 333 332 333 333 335 334 337 336 338 338 338 340 341 343 345 345 346 348 350 350 353 351 351 353 355 354 359 359 363 361 361 356 358 363 358 360 361 362 360 364 365 364 367 370 369 369 369 366 370 364 366 363 363 363 366 368 368 369 368 368 365 359 361 361 360 361 354 351 360
316 320 316 317 313 318 320 328 333 336 334 327 331 325 325 330 334 338 340 339 341 331 330 331 332 332 333 332 333 333 333 332 332 334 334 337 338 338 339 344 342 343 345 345 347 348 348 349 350 351 352 354 356 358 360 359 360 365 360 361 365 359 357 357 360 359 359 358 363 365 368 369 370 368 368 369 369 364 365 368 363 364 366 370 370 368 369 364 363 364 362 364 363 362 357 353 354
314 316 316 315 316 320 322 321 327 332 332 327 327 326 327 330 334 336 339 343 339 335 331 331 332 331 333 331 333 333 333 332 332 335 332 337 337 338 338 341 342 344 344 346 348 353 351 351 353 357 352 355 356 361 363 362 362 366 357 359 359 364 364 360 360 360 358 361 364 366 369 369 369 370 368 366 370 365 364 365 365 364 367 369 369 364 365 363 360 365 361 364 366 365 363 360 358
316 318 316 317 315 316 318 324 328 329 326 325 326 324 326 330 331 336 340 338 338 334 337 332 333 331 332 331 333 332 333 333 334 335 333 336 337 336 337 340 342 344 345 348 352 352 353 353 353 357 357 355 358 360 360 356 356 358 353 356 356 360 359 362 361 357 360 362 362 365 369 368 369 369 368 367 368 368 365 365 363 363 366 365 366 359 361 364 361 359 362 362 365 364 366 363 361
319 319 316 316 316 319 323 325 329 331 327 323 324 327 328 329 331 335 338 338 336 335 333 335 333 333 333 330 332 332 333 334 336 336 334 336 337 336 338 341 342 343 348 348 348 349 348 350 354 354 356 358 359 358 357 354 351 356 357 351 351 353 359 360 357 360 361 358 363 366 370 365 369 368 368 366 366 366 366 365 363 362 365 364 365 362 358 360 368 368 370 370 363 364 360 359 359
316 317 317 315 315 313 324 322 329 331 327 324 328 325 325 330 333 335 337 336 334 335 332 334 339 334 334 332 333 332 334 336 336 336 334 336 335 336 336 340 344 341 346 346 348 350 351 351 352 353 356 357 358 357 360 357 357 355 353 350 348 352 364 359 358 364 356 362 368 369 368 367 368 369 370 369 369 366 365 363 363 364 364 363 364 364 360 364 367 366 365 369 368 363 358 354 352
316 316 316 315 315 317 320 327 328 327 326 324 327 324 324 329 333 335 334 335 338 337 336 339 338 337 338 334 332 334 333 334 334 335 335 335 335 336 336 338 341 342 344 344 348 351 351 354 357 357 356 356 357 358 360 359 361 361 356 354 352 352 358 358 358 359 361 361 362 367 369 370 369 366 367 368 367 366 366 367 363 366 363 365 366 367 364 365 369 365 366 367 363 358 361 362 366
314 315 314 315 317 314 312 325 325 325 323 322 325 324 329 332 332 333 336 337 338 341 340 338 339 338 336 335 332 334 332 334 332 335 334 335 335 337 336 338 342 343 346 345 346 350 350 357 359 359 359 358 360 360 360 359 361 365 367 366 361 356 358 360 364 364 364 360 359 364 369 370 368 364 364 364 365 363 366 364 364 367 367 367 366 367 367 365 365 368 364 359 360 354 349 353 359
314 314 314 315 314 314 313 317 324 324 324 327 325 321 325 329 328 329 334 338 336 339 341 340 339 342 347 344 338 336 334 334 334 336 335 336 334 337 337 340 340 342 344 345 346 348 349 352 358 361 360 360 360 361 362 364 364 364 365 364 363 361 359 362 359 359 360 365 359 362 363 368 368 365 364 366 366 367 369 368 367 366 368 365 367 368 368 363 366 364 361 363 364 359 347 351 361
312 316 316 316 317 314 314 316 317 317 315 323 322 311 312 323 328 327 330 333 333 339 335 337 337 340 339 343 343 339 336 336 336 336 336 337 335 339 339 341 339 341 344 345 347 348 350 352 358 361 361 361 358 361 364 365 364 363 363 359 361 361 355 356 356 354 355 358 355 359 362 363 364 363 366 365 368 368 367 368 367 365 368 369 372 370 368 369 366 366 365 363 362 362 374 356 350
310 312 319 317 317 315 314 313 314 309 310 318 322 310 306 319 322 325 327 329 330 335 334 333 337 338 340 342 342 344 337 336 336 337 337 337 337 338 339 339 339 340 343 346 347 348 351 354 358 359 360 361 361 362 365 364 362 364 360 356 358 359 358 357 365 357 356 357 360 359 362 363 367 362 361 364 365 368 368 368 368 368 367 370 369 369 366 363 361 362 364 368 367 370 369 369 355
310 316 318 317 315 314 314 312 312 311 316 320 322 316 309 310 317 324 327 325 328 329 331 333 334 339 338 342 343 345 342 339 336 337 338 338 339 339 340 340 340 341 343 344 345 346 353 357 359 360 360 361 360 362 364 364 363 363 362 360 359 359 354 359 362 362 361 363 364 359 359 360 365 365 364 368 366 367 369 367 370 371 371 367 370 369 365 362 366 365 367 369 370 379 373 364 360
313 316 316 315 316 315 315 313 311 311 311 307 316 317 310 308 319 326 328 322 324 326 329 330 335 336 339 340 343 344 346 346 345 337 337 338 340 340 342 341 342 343 343 343 345 347 354 358 361 362 360 362 363 363 363 363 365 365 362 360 361 360 359 360 362 363 361 361 363 362 362 360 366 369 366 366 367 368 370 370 371 369 365 365 371 368 364 360 363 366 369 371 366 368 374 371 376
315 316 317 317 317 316 315 312 311 311 309 304 309 313 308 308 315 320 327 322 322 326 329 330 336 339 336 339 342 344 345 347 347 343 346 342 341 341 343 344 342 343 344 346 345 346 349 357 360 361 361 361 363 364 364 364 366 366 363 361 360 360 362 361 361 363 364 365 363 363 365 364 361 365 366 368 370 368 367 368 368 367 364 363 364 364 365 365 368 370 368 368 368 366 381 367 368
317 315 313 313 313 313 314 313 312 309 302 306 310 312 312 304 312 318 318 320 323 326 328 331 334 339 343 342 342 344 344 346 346 346 347 347 344 342 344 344 344 343 345 345 344 346 349 353 358 360 361 361 363 364 364 363 365 364 362 362 361 359 362 361 362 362 366 365 364 362 367 367 362 362 363 365 367 366 368 366 365 365 364 368 367 365 364 360 363 363 363 371 368 369 370 369 365
314 312 310 311 309 312 311 310 312 303 301 308 311 311 316 305 310 319 323 325 328 328 327 329 331 335 338 341 342 341 344 345 345 345 348 347 350 346 345 346 344 345 344 344 343 346 351 354 358 360 362 362 363 363 363 361 362 362 363 363 362 363 362 357 360 360 362 362 362 363 366 367 369 363 363 363 362 362 367 367 367 366 367 368 366 368 369 366 362 363 369 369 369 373 374 377 370
312 311 310 304 301 303 299 304 299 300 300 308 312 311 310 310 317 321 323 327 328 332 332 331 332 334 337 339 342 343 345 346 346 346 349 349 347 347 345 351 351 348 346 346 344 345 349 355 359 358 361 362 363 364 364 363 362 362 362 361 362 365 363 365 362 363 363 364 364 363 366 366 367 366 364 361 360 361 367 370 367 369 369 368 375 373 371 372 371 369 371 363 368 368 370 368 371
309 308 306 302 299 297 295 299 302 302 306 311 310 313 309 314 318 323 323 326 332 331 332 334 333 334 336 340 342 345 346 348 345 344 351 349 348 349 349 349 349 347 345 344 345 348 351 354 360 357 361 363 364 364 364 364 362 363 363 362 363 366 364 364 363 360 360 365 367 364 361 360 366 363 361 364 360 359 365 367 369 370 374 372 375 376 373 373 376 370 371 368 362 370 373 369 369
309 311 308 305 304 299 295 298 296 298 302 306 311 307 307 307 314 324 326 327 330 331 332 333 337 338 340 340 343 345 345 348 347 346 346 347 347 349 349 351 350 348 344 344 345 351 354 356 361 361 361 362 363 365 365 364 362 362 363 363 363 364 362 362 362 362 364 361 360 360 365 362 362 363 364 366 368 364 365 369 369 370 372 374 373 375 372 374 374 374 374 375 372 372 370 367 365
311 311 311 306 304 309 300 303 302 302 302 302 305 305 314 314 323 326 326 327 327 330 330 332 334 337 338 338 341 342 342 344 345 344 344 345 347 353 349 350 349 348 351 347 347 351 352 357 362 362 361 360 362 365 365 364 363 362 364 363 363 363 365 362 365 366 366 363 364 364 366 370 365 366 368 368 366 365 365 366 368 367 372 370 372 374 373 371 374 370 374 373 370 366 368 369 369
307 308 304 306 312 308 304 305 306 307 303 301 312 309 314 319 321 323 324 324 326 328 328 328 329 331 335 336 337 339 341 343 345 343 340 342 344 347 352 352 349 349 348 349 353 353 354 358 361 363 363 362 362 365 365 364 364 362 362 363 362 362 360 359 356 358 354 358 363 362 361 359 362 366 362 363 363 371 369 366 364 363 370 371 371 373 371 373 375 371 369 373 369 364 370 370 369
307 302 306 311 313 311 306 298 302 300 297 301 308 306 308 311 307 323 321 323 325 324 326 327 329 330 330 331 334 338 340 342 344 344 346 345 346 346 350 352 351 351 352 353 358 358 356 357 360 362 364 363 361 362 363 363 363 362 362 361 362 361 358 357 356 355 355 357 361 361 359 361 358 355 355 355 362 363 369 367 367 367 364 366 367 366 369 371 374 373 370 374 371 373 373 372 372
307 305 311 304 300 299 305 302 295 296 295 299 305 309 310 312 310 317 316 318 321 324 325 325 325 327 329 331 333 337 340 341 343 345 345 347 346 347 349 351 354 350 354 353 355 355 355 353 357 362 362 364 362 362 362 363 362 358 358 360 360 360 359 358 357 359 357 355 353 356 355 358 356 360 360 367 361 361 363 365 369 364 367 366 367 366 369 370 371 372 370 370 372 374 374 373 374
311 311 307 311 306 304 301 303 305 304 297 298 303 308 306 314 314 318 317 319 321 320 322 322 325 326 327 329 331 334 336 339 340 342 343 347 347 350 352 349 349 352 350 351 355 357 356 357 359 362 358 360 363 365 363 362 361 360 358 361 363 362 362 360 360 360 355 353 354 354 355 353 355 356 355 363 358 358 359 359 358 357 357 359 361 361 363 368 369 369 367 364 366 371 369 370 368
304 305 304 306 306 310 307 307 304 301 300 299 300 299 305 313 320 319 319 319 321 321 321 323 324 326 327 328 330 332 335 338 341 342 344 345 347 348 350 352 350 357 356 355 354 353 357 355 357 358 355 358 356 357 362 363 363 362 362 361 359 361 357 358 356 357 356 355 355 356 353 352 356 355 355 353 357 358 360 360 358 359 356 359 364 363 363 367 368 369 370 370 370 370 368 367 369
305 305 303 306 304 302 298 298 307 305 301 297 299 300 308 315 323 320 319 321 321 322 322 322 324 325 327 328 330 331 334 337 337 339 342 345 347 348 352 355 355 353 352 354 353 353 355 356 353 355 356 357 358 355 359 361 362 362 359 359 360 359 358 357 354 353 354 355 354 355 357 356 352 356 355 351 354 353 358 358 357 358 359 360 364 367 359 363 364 366 365 360 363 370 369 367 368
Wind_Speed
11 10 10 11 9 7 5 2 3 2 2 2 2 3 2 2 7 6 7 4 8 4 8 7 6 5 7 10 16 15 14 6 5 5 8 8 12 13 15 17 16 15 15 13 13 12 11 12 14 13 11 12 11 11 11 11 10 10 10 11 12 12 12 12 11 11 11 11 12 12 12 14 14 13 13 13 13 14 15 15 14 13 13 13 14 14 14 14 13 13 13 14 14 15 15 14 14
10 11 11 10 8 5 2 3 1 1 3 2 2 3 4 3 3 11 4 9 7 9 9 11 11 11 11 16 14 20 19 16 19 16 13 13 15 14 17 17 18 17 15 14 13 12 11 10 12 11 11 11 11 13 12 11 10 10 11 12 13 13 12 11 11 11 11 12 12 11 12 12 13 13 13 13 13 14 14 14 13 12 13 13 13 12 12 13 14 13 12 13 13 14 15 14 14
10 9 9 8 4 3 1 1 2 1 2 3 2 4 5 5 7 2 10 9 12 12 11 12 11 8 14 16 17 19 13 19 24 19 14 18 14 10 17 16 16 17 16 12 12 12 10 11 12 11 11 9 11 13 12 11 11 11 12 13 12 12 11 11 11 11 11 11 11 11 12 13 13 13 14 13 13 14 14 13 13 13 12 13 12 11 11 13 13 13 12 13 11 15 15 14 14
6 3 7 5 1 1 1 2 2 2 3 0 3 4 6 8 9 10 11 11 13 12 11 11 9 12 16 19 18 20 16 13 17 18 13 14 11 15 16 17 17 15 14 12 12 12 11 12 13 13 13 15 13 12 12 11 11 12 12 12 13 12 11 11 11 11 11 11 11 11 12 12 12 14 14 14 14 13 13 13 13 12 12 12 12 12 12 13 13 12 14 12 12 14 15 14 14
10 9 9 1 2 2 2 2 1 2 3 2 5 4 9 10 13 12 11 11 13 10 11 10 11 11 11 15 10 10 14 18 16 13 13 15 18 15 17 18 17 16 14 14 13 13 13 16 15 15 15 13 12 12 12 12 12 12 12 12 12 12 11 11 11 11 12 11 11 11 12 12 12 13 14 13 13 13 13 13 12 12 12 11 11 12 12 13 13 12 13 13 13 14 15 15 14
9 9 2 2 1 2 2 2 2 2 1 2 4 7 6 12 14 13 13 13 8 11 11 9 11 13 13 14 10 14 15 11 15 14 16 17 22 23 21 17 15 15 14 13 13 11 13 17 16 15 13 13 12 12 12 12 12 12 12 12 12 11 11 11 11 11 11 12 11 12 12 13 13 13 13 13 13 13 12 12 12 11 12 12 12 11 12 12 13 13 14 11 13 15 15 14 13
6 5 4 3 1 3 3 2 2 1 2 4 6 9 8 12 13 14 14 13 10 11 12 15 17 17 14 11 15 13 15 18 13 15 15 20 20 19 18 17 16 17 16 13 12 13 15 15 15 14 13 12 12 12 12 12 12 12 12 13 12 11 10 10 11 11 11 12 12 12 12 13 13 13 12 13 13 13 13 13 12 12 12 12 12 12 12 12 13 13 14 13 14 14 15 14 12
3 3 1 1 2 1 3 1 1 2 1 6 10 9 9 12 12 11 13 12 10 9 12 12 13 16 18 14 15 15 15 14 19 21 22 19 20 19 16 16 17 17 17 15 13 12 16 15 14 14 13 12 13 12 13 13 12 12 11 12 12 12 11 11 11 11 11 11 12 12 12 13 12 12 13 13 12 13 13 13 12 12 11 12 12 13 13 13 13 14 14 13 14 15 14 13 11
2 3 1 2 3 2 2 2 2 3 2 6 7 10 11 7 12 11 12 11 11 11 14 17 16 16 13 18 14 15 16 22 22 23 21 20 19 20 15 17 16 15 16 15 14 13 13 15 14 13 13 13 13 14 13 12 12 11 11 11 12 12 12 12 11 10 10 11 11 11 11 12 12 13 13 13 12 12 13 13 12 12 13 12 12 13 13 13 13 14 15 13 13 14 14 12 10
4 1 2 1 3 2 4 2 4 3 5 5 6 6 3 6 11 10 12 13 12 14 13 14 16 20 19 19 16 15 16 23 23 22 20 19 18 17 19 20 18 18 16 16 14 13 11 15 14 14 13 13 14 14 13 12 12 11 11 12 12 12 12 12 11 10 10 10 11 11 11 12 12 12 13 14 12 12 13 13 12 12 12 12 13 13 14 13 14 14 14 15 14 14 14 12 10
2 1 2 1 2 4 5 5 3 7 7 4 5 4 1 3 9 9 8 13 12 14 17 19 18 19 16 16 12 15 22 22 22 21 21 19 18 18 17 18 18 18 18 17 15 13 12 11 16 14 14 15 14 14 13 13 12 12 12 12 11 12 12 11 11 10 10 10 10 11 11 12 12 12 13 13 12 11 13 12 11 11 12 12 13 13 13 14 14 14 14 14 15 14 14 12 10
3 3 1 1 4 5 2 5 8 8 6 10 7 5 1 4 9 10 12 14 9 16 17 13 13 18 18 16 12 16 21 21 21 19 18 18 16 18 17 14 17 18 18 18 16 14 13 12 11 14 16 16 15 14 13 12 11 12 13 11 11 11 11 12 12 10 9 9 10 11 11 12 13 13 12 12 12 12 12 13 10 11 12 12 12 14 14 12 13 13 13 14 14 13 13 11 10
4 2 1 3 2 1 1 5 7 9 8 7 9 4 5 4 6 9 6 13 14 15 13 15 18 15 17 16 13 18 21 19 19 19 18 15 17 12 16 15 16 17 17 17 16 15 15 12 12 11 13 16 14 13 13 13 11 12 12 12 11 10 10 12 13 11 10 9 9 11 12 13 13 13 12 11 11 12 14 12 11 11 11 10 12 13 16 13 13 13 13 13 13 12 12 11 10
3 3 2 2 2 1 1 3 4 6 6 7 3 6 3 2 6 9 10 13 13 12 16 18 15 18 19 16 15 14 17 20 20 19 14 16 15 15 17 15 17 16 16 16 15 15 14 13 12 11 11 11 11 11 13 13 12 10 10 10 12 11 9 12 13 13 12 10 10 10 12 13 13 12 12 12 11 12 12 11 11 11 10 12 11 13 14 14 14 14 15 14 14 13 12 10 10
3 2 2 1 1 1 4 4 7 6 8 7 6 6 7 5 7 7 12 9 9 15 15 12 17 15 13 19 16 15 18 21 21 19 17 15 16 15 16 15 16 15 15 15 15 14 13 13 12 11 11 10 10 9 7 10 12 11 10 9 8 12 10 12 14 13 12 11 12 11 12 13 12 11 11 12 12 11 11 11 12 12 9 10 11 10 13 13 13 13 13 13 13 12 11 10 9
3 4 3 2 1 0 1 0 7 7 6 8 7 5 5 8 4 10 8 6 10 12 13 13 13 8 19 16 21 21 22 22 22 21 18 18 16 15 14 15 13 13 12 13 13 12 12 13 11 10 10 10 9 9 9 9 11 12 10 10 9 9 9 10 12 12 12 12 12 13 12 10 10 9 11 10 12 11 9 10 12 9 9 8 10 12 12 12 13 13 12 12 12 11 10 9 8
2 2 0 1 1 3 2 3 7 5 9 9 6 5 8 7 5 6 5 7 13 12 9 12 12 18 16 17 22 24 23 20 20 22 21 16 12 11 10 10 9 8 7 11 11 11 12 12 12 10 11 11 10 10 8 9 10 12 10 10 10 9 9 10 11 12 12 12 11 11 9 7 5 5 5 7 10 8 10 11 10 10 11 9 8 10 11 11 11 11 11 11 10 10 10 9 8
2 1 1 1 1 2 1 2 3 7 10 9 7 8 8 10 8 8 8 6 8 10 10 12 17 15 18 20 22 22 21 21 20 21 19 17 13 11 10 10 10 9 7 9 10 11 10 10 11 11 10 12 10 8 7 7 8 10 9 7 6 7 7 10 9 8 9 7 11 8 5 5 5 5 4 8 6 8 7 10 10 11 11 10 10 12 12 11 10 10 10 10 10 11 10 4 4
3 1 1 1 2 1 2 6 8 10 10 10 8 4 6 9 8 8 9 12 8 11 11 15 19 21 22 21 22 21 21 20 20 19 20 19 16 18 14 11 11 12 10 10 9 11 10 9 10 11 11 11 11 10 8 7 8 6 8 8 6 8 7 8 6 7 5 5 5 5 3 3 5 4 4 5 6 8 8 9 9 13 15 13 12 12 10 11 10 9 9 9 9 8 2 4 4
4 3 3 3 5 3 2 4 6 6 11 9 5 5 6 10 9 9 9 10 14 11 12 16 20 23 23 22 21 21 20 19 18 19 18 17 16 16 15 15 15 15 13 10 10 9 10 9 10 11 11 10 9 8 8 8 7 6 7 7 7 5 5 4 5 6 6 6 5 4 2 4 5 2 6 7 6 5 8 15 15 13 12 11 11 8 9 9 9 7 5 5 6 3 2 2 4
5 3 3 3 7 6 4 4 4 7 8 7 6 4 8 7 5 6 12 12 10 11 14 18 23 24 24 22 21 19 19 19 18 17 17 16 16 13 13 13 11 11 12 12 9 9 10 11 10 10 10 8 8 8 8 8 7 7 7 6 6 6 5 6 4 4 4 5 4 4 4 4 4 4 4 0 5 5 6 6 6 5 5 6 9 5 4 6 6 4 3 4 3 4 3 2 1
4 5 7 6 7 3 8 5 7 8 7 7 8 6 6 9 6 1 4 7 8 10 15 19 21 23 24 23 21 19 19 19 18 17 17 17 16 15 14 12 13 11 11 11 12 11 11 11 11 10 10 8 7 6 7 8 8 6 6 7 7 5 5 3 5 4 4 5 4 3 4 6 5 3 8 7 4 3 4 4 5 5 4 4 3 3 3 3 3 3 2 2 4 4 4 3 2
5 7 10 14 12 11 8 10 6 3 10 8 8 5 7 9 8 5 8 8 8 12 16 20 20 22 22 21 20 20 19 19 18 17 17 17 16 15 15 13 12 11 9 11 11 10 11 12 11 10 10 8 8 6 6 6 6 6 6 5 5 5 4 3 2 3 4 5 4 6 7 7 8 8 5 5 5 4 5 5 4 3 3 4 3 2 3 2 3 3 3 2 2 2 4 4 5
6 6 7 14 20 16 15 12 7 2 6 8 7 6 5 8 9 14 9 6 5 11 16 19 20 20 21 21 20 20 18 18 17 16 16 15 15 16 15 14 12 11 10 11 11 10 11 13 13 11 10 9 8 8 7 6 4 6 6 7 4 2 3 5 6 4 4 5 4 3 4 4 5 4 3 3 5 6 6 6 6 7 5 5 3 2 4 3 2 2 2 2 1 3 3 3 3
5 7 10 2 4 20 20 15 13 6 4 5 9 7 0 2 7 10 7 6 13 13 17 19 20 20 20 20 20 19 18 17 17 17 15 12 14 15 15 12 13 12 13 12 11 12 11 12 12 12 11 10 8 9 8 6 5 5 5 5 3 2 1 1 3 4 4 4 3 3 3 2 4 4 4 5 3 2 3 3 3 3 3 2 3 2 2 3 2 1 1 0 1 2 3 1 2
8 10 9 15 4 19 19 18 13 11 7 7 10 8 4 4 4 7 7 6 15 17 17 19 20 20 19 20 19 18 17 17 17 17 16 14 14 15 15 13 12 13 13 12 12 11 12 14 13 12 11 9 9 9 7 6 6 5 5 5 6 8 7 5 5 4 5 4 5 4 4 2 3 4 5 3 3 3 3 4 2 4 4 3 3 3 2 1 2 2 1 0 1 1 1 1 3
10 11 14 13 10 9 23 22 16 8 5 5 10 7 3 2 3 3 7 7 17 17 18 19 20 19 18 18 18 17 18 17 17 15 15 15 15 13 14 13 12 13 13 13 11 10 11 14 13 12 10 9 8 7 7 8 9 9 10 12 12 13 11 12 11 8 4 4 4 5 4 4 4 3 5 5 3 2 3 4 4 4 3 3 3 3 4 3 2 1 1 1 2 1 2 3 3
9 9 10 4 3 4 15 19 18 8 5 3 6 9 7 5 3 6 7 9 17 18 19 19 18 17 17 18 17 15 14 14 13 14 16 16 12 13 13 11 13 13 12 13 10 10 11 12 14 14 12 10 8 7 7 8 8 8 8 7 7 10 12 5 5 10 11 7 5 1 4 5 4 2 1 3 3 2 1 1 2 2 1 3 3 3 3 4 4 2 2 1 1 2 2 4 4
8 9 8 13 8 11 23 17 14 11 6 6 8 10 6 8 4 8 5 11 17 18 19 19 18 17 17 17 15 12 14 13 13 12 14 13 12 12 13 12 14 12 9 13 13 12 12 12 11 11 11 11 10 9 7 6 6 6 5 5 4 7 12 11 8 8 10 12 13 12 8 6 4 3 1 1 3 3 2 2 3 3 4 4 2 3 4 3 3 3 2 1 1 2 4 1 1
9 7 7 7 9 15 19 14 13 11 7 8 7 5 7 10 10 9 12 13 16 18 18 17 15 15 16 16 14 13 13 12 14 13 12 13 12 13 13 13 15 12 9 9 13 14 11 9 9 9 10 10 9 8 5 5 5 5 4 5 3 4 5 6 7 7 8 7 8 7 5 4 5 3 3 1 2 3 2 1 2 3 3 3 4 3 2 3 1 1 3 2 1 1 3 1 2
8 9 7 5 6 5 10 10 15 11 4 8 4 2 6 7 7 0 5 10 16 17 17 17 16 16 15 15 13 13 15 11 13 15 14 14 12 12 13 13 14 13 10 11 12 13 11 11 9 9 9 9 9 8 6 5 4 5 5 4 3 4 6 5 7 7 7 8 7 6 6 4 4 4 5 3 2 3 2 2 2 2 3 3 3 3 1 3 3 3 1 1 1 1 1 2 4
8 7 9 6 5 9 12 13 15 14 6 8 5 1 3 10 9 7 9 10 16 15 16 17 16 15 16 14 14 14 13 13 13 15 15 15 14 12 13 14 14 14 13 12 12 12 12 11 10 11 11 9 8 6 5 4 4 4 4 4 4 2 4 5 6 7 5 5 6 6 7 6 4 4 5 2 3 2 2 2 3 3 4 2 1 2 1 3 3 3 2 2 1 3 3 3 3
9 9 6 7 6 12 11 6 9 11 13 9 6 5 5 7 12 12 11 16 17 13 15 15 17 18 16 15 13 13 13 13 13 14 15 13 13 13 12 14 13 14 13 13 13 12 11 11 10 13 12 9 9 8 5 4 4 4 4 5 7 4 2 3 6 3 7 4 4 6 5 5 5 5 5 3 2 3 2 3 3 3 2 2 3 3 2 1 2 5 2 3 2 0 1 5 1
9 9 5 5 3 10 8 9 7 12 9 8 6 8 5 6 7 9 5 5 4 14 14 16 15 15 15 14 14 14 12 13 13 13 16 13 12 14 13 12 14 13 13 13 13 12 12 10 11 11 10 10 8 6 5 4 4 3 3 3 4 7 7 4 4 5 6 9 5 6 6 5 4 6 5 3 2 2 3 2 4 3 3 3 3 2 1 1 2 1 3 2 2 1 2 2 0
8 8 8 10 10 11 15 10 9 11 6 9 7 6 8 9 8 8 5 4 4 4 13 14 15 15 14 15 13 16 14 13 13 13 16 14 14 14 12 12 14 13 12 14 12 9 9 8 8 9 10 9 8 7 5 4 5 4 4 4 3 2 3 3 4 3 5 6 5 6 6 5 5 6 5 4 0 3 4 4 4 3 2 2 2 3 2 3 3 3 3 2 0 2 2 0 1
10 4 3 8 3 8 9 10 13 12 11 9 5 5 7 11 9 6 7 5 4 5 11 7 14 15 14 14 14 15 14 14 13 14 16 13 13 13 12 11 13 12 12 11 10 9 8 7 9 8 7 10 8 7 5 4 4 3 4 4 3 2 5 4 4 3 5 5 7 7 5 5 5 6 6 5 3 4 4 4 3 2 2 2 3 4 3 2 2 1 2 4 2 1 2 3 3
7 9 4 9 7 10 15 14 12 11 9 6 9 9 6 6 7 7 7 8 4 3 5 12 11 13 14 13 14 16 14 14 14 14 15 13 15 13 12 11 12 13 12 12 12 12 10 7 9 9 7 9 7 7 5 5 5 3 3 5 5 4 5 4 5 3 4 6 6 6 6 6 6 6 6 5 4 5 4 4 3 2 2 2 3 2 1 4 3 1 1 4 3 2 1 4 3
7 0 4 6 5 7 14 15 16 12 7 4 6 9 8 3 7 8 7 8 3 1 4 10 6 11 13 13 14 15 14 13 15 13 15 14 13 15 13 10 12 14 12 13 12 12 9 10 10 9 7 8 7 7 5 5 4 3 4 4 5 5 3 4 2 2 6 8 6 5 5 6 5 5 6 4 5 6 4 4 4 3 2 1 1 3 3 3 3 3 3 1 1 1 2 4 1
7 5 4 5 8 8 9 16 10 9 8 6 8 8 6 6 4 5 5 7 4 6 7 4 5 11 7 12 13 14 15 14 16 15 15 14 15 16 13 11 12 14 15 14 12 12 10 9 8 7 7 7 6 6 5 4 4 4 4 4 4 6 4 4 5 4 5 8 7 5 5 5 5 6 6 4 4 5 5 4 3 3 3 2 2 2 5 2 1 3 3 1 2 3 4 2 2
10 9 10 10 4 9 9 18 19 11 6 11 12 8 4 4 3 2 5 7 4 6 7 6 2 11 9 13 13 13 15 15 17 16 16 15 15 14 13 12 12 13 13 13 13 13 11 8 8 7 7 7 5 6 5 5 4 3 3 3 3 2 4 3 5 4 3 7 7 6 5 5 5 6 8 6 4 4 5 4 4 3 3 3 3 3 3 2 3 2 3 3 4 3 3 3 2
12 10 8 5 9 13 7 14 17 13 11 17 12 6 2 4 4 5 6 8 6 5 5 4 7 8 6 4 6 14 13 14 15 16 16 15 16 14 13 11 13 13 13 14 13 13 10 13 10 8 7 7 6 7 5 5 4 4 3 5 2 5 6 3 4 4 3 2 7 6 6 5 5 5 6 7 5 5 4 4 4 3 4 4 4 3 3 4 5 3 3 4 3 3 4 1 2
9 5 7 6 12 12 8 17 18 9 7 12 16 5 4 7 9 8 8 10 9 6 8 7 6 2 7 5 5 9 13 13 14 16 16 15 16 14 14 13 14 13 13 14 13 14 12 12 11 9 7 6 7 8 6 5 4 4 3 4 4 4 7 6 6 6 6 5 7 8 8 7 6 6 5 7 7 5 4 4 4 4 4 4 2 2 3 2 2 3 5 4 4 2 1 2 2
7 8 8 9 7 10 3 10 9 11 10 12 14 6 7 8 8 10 11 12 12 12 10 11 9 6 7 3 7 5 12 13 14 14 14 16 16 14 15 13 14 15 13 14 13 13 13 12 12 10 9 7 7 8 6 6 6 4 5 5 5 4 5 4 3 5 7 6 4 7 6 6 4 6 7 6 7 6 4 3 3 4 4 5 3 2 3 6 5 4 4 2 2 2 2 1 2
8 7 15 7 7 11 13 5 7 6 10 18 16 6 9 5 8 12 13 13 12 12 9 10 9 10 9 7 8 7 6 9 14 12 15 15 15 15 15 15 14 14 14 14 13 13 12 11 12 10 9 8 7 8 7 7 7 6 5 5 4 4 5 4 4 4 5 6 4 7 6 6 6 5 5 6 6 7 6 5 3 3 2 2 4 4 4 3 2 3 5 1 2 2 2 3 2
7 15 13 11 9 11 10 9 8 8 8 11 14 17 8 4 5 10 7 7 4 10 9 9 13 15 10 10 10 9 6 1 2 10 15 15 14 15 14 14 15 15 14 14 12 11 11 12 12 10 10 8 8 11 8 8 7 7 6 5 4 4 5 4 3 3 6 6 5 5 6 6 5 4 5 7 6 6 6 5 4 3 3 3 4 3 3 2 4 3 3 2 2 2 1 2 0
14 11 6 10 10 12 11 9 7 4 4 8 11 12 6 3 8 9 5 8 3 2 9 12 11 13 15 12 10 10 4 3 1 2 5 6 15 14 15 15 15 14 14 13 13 14 13 12 12 11 11 9 9 11 9 9 8 7 7 5 6 5 4 5 4 4 5 7 6 5 6 6 6 5 5 6 5 7 6 5 5 5 5 5 3 2 3 6 3 3 3 3 3 2 1 3 2
8 7 11 10 13 10 7 4 3 4 7 6 12 19 12 5 6 11 9 6 9 9 7 7 9 11 9 10 10 9 6 5 3 2 2 7 9 14 15 15 14 13 12 14 13 14 14 13 13 12 11 9 10 11 10 10 8 8 7 7 6 5 4 5 5 5 4 5 5 5 5 5 6 6 6 6 6 6 8 6 5 6 6 4 4 3 4 5 5 4 4 2 2 2 2 2 0
8 7 9 6 7 7 8 8 6 7 8 10 12 14 18 9 8 10 9 10 7 8 8 8 9 9 10 9 9 9 10 9 6 4 3 6 7 11 14 14 13 11 14 14 13 14 13 12 13 12 11 9 10 11 11 11 9 8 7 7 6 5 5 5 4 5 5 5 6 6 6 5 4 6 6 6 6 8 6 6 6 5 5 4 5 5 1 2 1 4 4 3 2 2 3 1 2
9 5 10 11 7 7 10 8 11 10 8 9 15 11 11 5 8 11 13 19 10 6 2 6 6 9 7 9 9 8 8 8 9 6 4 4 4 7 9 6 7 10 11 13 13 15 14 13 14 13 11 11 10 11 12 11 10 8 8 8 7 6 6 4 5 5 5 5 5 5 5 5 5 5 6 7 7 8 6 5 6 4 5 4 2 4 1 3 1 2 3 5 3 3 2 2 1
9 9 10 10 10 9 7 9 8 8 12 11 13 9 9 9 9 10 9 12 16 16 6 6 7 7 7 6 6 8 7 7 8 8 5 3 3 4 9 12 13 10 12 15 14 12 12 13 13 14 13 11 10 11 11 11 10 9 8 8 7 6 6 5 5 5 6 5 5 5 6 6 5 6 6 5 7 7 6 6 5 6 5 5 4 3 3 3 2 3 2 2 4 3 3 3 3
11 10 11 10 10 8 10 9 11 11 8 15 9 9 8 11 5 14 9 13 9 9 11 8 14 10 6 7 6 7 6 5 3 5 3 1 4 6 5 6 8 10 13 15 12 11 12 13 13 14 14 13 12 12 11 11 10 10 9 8 8 6 7 6 6 5 5 6 6 6 5 6 6 5 5 5 4 8 6 6 6 4 5 4 5 4 4 3 3 4 1 1 1 2 2 3 3
10 6 8 12 13 8 10 7 10 10 9 7 8 2 12 11 9 11 12 12 12 9 11 14 14 9 5 5 5 5 6 6 5 6 5 5 4 4 7 9 12 13 10 10 13 10 12 13 14 15 14 14 13 13 11 11 10 10 9 9 9 8 7 7 6 6 5 6 6 5 5 4 5 5 3 4 4 6 6 6 6 5 5 5 4 4 4 4 3 3 4 3 4 2 3 2 3
11 11 13 10 7 11 7 7 10 12 9 7 11 11 11 12 7 12 13 10 14 14 13 12 12 10 7 6 5 7 6 5 5 6 6 5 6 9 6 10 12 11 12 10 10 11 10 12 15 15 13 13 13 13 12 11 10 10 11 10 10 10 10 10 9 10 10 7 5 5 5 6 4 4 5 5 5 3 4 5 6 6 5 5 5 4 4 4 4 4 4 3 3 4 4 3 3
7 12 10 12 13 10 6 5 6 11 10 8 14 16 15 12 10 7 13 14 10 10 14 15 12 12 8 5 5 7 9 4 10 8 6 8 10 12 8 6 8 10 11 8 1 5 9 10 15 15 14 14 14 14 14 12 11 11 10 11 10 10 11 12 10 10 8 7 6 6 6 6 7 7 7 7 5 6 4 5 5 5 7 5 6 6 5 5 4 3 4 4 4 3 2 3 3
12 5 14 6 8 11 5 3 6 9 12 8 14 21 15 11 11 9 12 11 15 14 12 13 13 12 11 7 7 12 9 8 6 12 11 9 9 11 10 14 8 10 9 8 6 3 6 11 12 15 15 14 14 14 13 11 12 11 11 11 12 11 10 10 8 8 8 8 10 9 8 7 8 5 7 4 7 7 5 5 4 4 5 6 5 5 6 4 5 4 4 4 4 3 2 3 3
12 7 10 12 9 8 9 6 6 6 8 10 12 14 8 8 11 9 15 10 11 11 11 13 15 14 11 8 7 9 10 9 5 4 5 7 10 10 8 11 13 8 9 7 6 2 7 6 5 4 2 8 11 11 12 12 13 12 11 11 10 10 9 9 8 7 10 9 9 9 9 10 9 7 7 5 7 6 7 8 8 7 7 7 6 5 6 5 5 5 4 4 5 4 4 3 4
9 8 9 9 9 6 6 6 10 8 6 9 12 9 6 8 8 10 12 12 9 11 11 14 14 13 11 11 9 7 8 8 11 12 9 5 2 5 8 6 6 6 7 6 7 7 5 5 4 7 9 7 7 12 12 10 10 11 11 12 13 11 13 10 12 10 9 9 8 8 10 8 8 8 7 7 6 7 8 7 8 7 8 6 6 6 5 5 5 5 4 3 3 6 5 4 3
6 9 8 7 7 6 7 10 9 10 8 1 10 10 6 10 10 11 9 12 10 14 15 12 15 13 12 11 10 7 5 6 11 12 13 11 8 7 5 5 6 5 4 5 5 6 3 3 4 3 4 2 1 6 9 7 10 11 13 12 13 12 12 10 13 11 11 10 9 8 8 8 9 8 8 10 9 9 8 8 8 7 6 6 7 5 6 4 6 5 5 5 5 3 5 5 3
Wind_Direction
202 197 192 201 209 242 234 186 257 177 176 264 199 235 113 150 182 119 119 111 107 97 74 71 97 115 77 93 77 61 39 67 23 132 115 131 142 148 136 132 133 135 130 131 131 133 135 134 137 136 134 120 128 163 155 123 119 113 108 98 93 91 87 85 84 83 81 83 80 80 80 81 83 86 88 83 83 82 82 82 81 82 86 90 90 89 99 108 93 92 98 100 104 105 106 104 103
203 195 195 194 208 223 183 34 229 267 219 228 240 305 149 154 174 122 143 130 124 118 126 105 113 105 104 98 90 70 48 63 81 90 96 125 138 135 133 136 137 132 132 131 133 134 136 143 144 142 135 139 161 154 125 122 116 112 107 97 89 86 85 86 83 83 84 84 84 82 87 87 88 88 85 81 81 82 82 86 89 91 93 93 90 95 99 99 98 98 99 105 109 107 105 105 103
208 204 206 200 173 89 22 167 248 108 241 208 126 219 132 164 140 122 151 123 108 114 99 83 83 83 75 71 68 82 85 84 91 96 114 132 124 145 139 138 134 132 130 133 134 137 139 145 147 138 131 145 173 128 125 120 116 109 101 96 89 85 86 83 85 91 95 95 96 97 91 90 93 91 88 88 82 81 87 87 90 90 85 90 99 98 95 96 99 101 100 91 96 107 106 105 101
246 271 264 145 288 137 248 175 230 161 249 182 114 218 160 172 138 155 127 111 118 110 105 98 85 75 86 83 93 95 95 85 99 117 125 144 135 139 142 138 134 132 132 133 137 135 133 140 141 137 152 170 137 129 122 116 111 103 98 96 92 90 87 89 93 96 97 97 96 97 96 89 92 93 92 87 84 83 84 89 91 94 92 87 91 97 98 102 103 100 99 105 114 107 105 101 101
254 257 225 190 146 203 226 237 292 204 157 219 170 200 204 144 145 136 130 122 97 101 98 99 93 85 84 99 104 97 108 108 110 118 124 123 137 145 143 142 138 134 132 135 133 127 128 137 143 162 156 137 132 123 117 112 106 99 99 99 96 89 89 95 95 98 101 100 100 100 97 92 85 84 89 90 86 85 86 84 83 91 98 99 93 95 99 102 104 105 105 106 107 103 105 105 108
245 263 151 177 234 126 260 256 230 221 336 304 153 185 208 130 131 134 116 95 108 107 112 104 94 102 87 78 94 109 129 116 121 111 121 130 137 141 143 137 127 125 125 127 125 123 129 139 148 145 137 135 127 119 113 111 105 105 105 102 98 97 98 100 102 101 103 104 102 98 94 92 88 89 91 89 89 89 87 84 84 90 95 96 98 104 107 106 104 103 103 107 109 105 103 107 114
221 212 42 11 44 210 246 262 253 275 129 200 188 155 149 133 136 127 124 126 124 117 100 103 107 104 98 97 94 89 99 119 121 125 125 130 131 134 138 126 120 122 128 126 124 125 129 138 140 140 135 130 121 116 113 109 107 106 109 106 104 104 104 104 104 103 101 100 97 92 90 90 93 93 89 86 87 87 85 84 86 86 87 94 103 107 109 109 105 103 102 104 105 106 108 113 115
187 101 207 190 246 161 272 262 321 223 72 266 161 162 159 143 132 130 127 129 134 127 133 115 94 94 94 104 103 114 120 112 117 122 124 128 131 133 125 115 120 125 126 124 124 123 132 138 137 136 131 125 120 113 113 110 110 112 112 107 106 108 109 103 101 101 100 98 93 92 90 88 89 91 92 88 85 88 88 90 90 90 90 96 103 106 105 104 105 104 103 106 105 108 109 113 116
65 57 27 258 254 206 236 259 189 199 235 251 133 126 137 151 133 135 128 128 137 113 107 110 115 105 112 109 101 110 108 117 122 125 126 131 135 134 131 124 125 125 125 124 123 128 133 138 139 137 131 126 120 116 113 112 114 116 115 110 107 104 103 99 94 97 99 99 97 94 93 91 89 87 85 87 87 90 92 90 91 94 94 96 102 104 105 107 106 105 107 107 108 111 116 117 119
98 352 260 211 323 257 239 160 164 162 161 172 144 134 131 154 139 138 133 128 121 119 106 107 104 101 111 106 115 118 120 123 126 122 126 131 132 131 129 127 129 131 126 126 130 131 133 137 136 134 129 125 121 118 116 118 118 121 117 108 107 107 100 103 98 97 100 98 96 100 98 97 90 87 91 94 90 91 93 92 92 94 96 100 103 105 105 106 109 110 111 115 116 113 115 114 108
26 119 157 19 263 246 203 151 180 152 161 183 126 37 136 194 130 119 132 111 109 114 113 112 111 112 111 105 104 116 123 127 124 127 134 135 134 133 127 128 132 130 129 131 130 128 132 135 136 132 128 125 121 120 121 122 122 121 113 109 110 106 103 105 104 96 97 101 104 104 103 100 95 90 89 92 93 89 89 88 90 97 101 106 106 108 110 110 112 113 113 113 114 116 114 113 107
217 120 156 327 270 269 101 147 145 142 155 153 141 150 86 170 148 143 135 111 124 124 125 134 114 118 108 114 119 128 130 129 128 131 129 131 130 125 128 131 129 128 130 128 127 132 133 136 130 121 114 117 119 120 121 121 123 120 113 111 114 107 110 112 108 105 99 100 104 104 102 102 99 93 95 101 103 100 100 98 93 100 98 98 102 103 100 103 110 111 115 113 113 115 116 117 113
285 117 251 264 252 277 63 148 138 146 151 161 155 162 147 138 154 126 142 124 139 125 117 115 125 120 118 119 129 133 133 133 126 127 129 129 124 135 129 130 128 128 126 129 131 132 135 134 129 125 121 119 117 119 122 119 116 117 120 120 110 114 117 113 110 107 106 107 112 106 103 100 97 99 102 105 106 102 99 102 101 101 102 104 104 105 114 119 118 115 111 110 118 119 120 122 118
219 165 196 275 106 140 243 140 137 151 144 139 138 138 144 149 164 149 146 126 128 125 125 137 128 117 111 125 135 139 133 134 126 126 129 126 128 130 127 130 129 129 131 131 130 135 135 132 129 128 130 127 122 121 120 120 118 116 121 123 122 120 126 122 115 117 120 122 105 103 108 107 103 104 103 106 109 106 106 105 106 96 89 100 105 108 105 109 112 117 120 124 120 122 124 126 122
195 102 188 290 305 36 175 155 181 166 138 161 150 162 153 210 164 114 95 121 146 131 137 128 119 128 143 141 143 145 140 139 131 128 130 127 123 124 126 127 129 130 131 132 135 133 131 132 132 137 134 130 129 124 123 119 121 119 117 119 118 120 129 124 117 118 119 117 117 116 108 103 100 104 111 109 112 111 112 109 101 95 96 110 107 105 107 110 112 112 115 119 123 126 127 130 129
321 66 312 291 138 103 19 280 190 161 144 169 163 163 149 106 64 134 168 189 118 129 138 125 161 124 146 141 141 142 138 140 137 137 133 129 126 125 125 125 124 126 125 129 130 135 137 135 137 136 133 135 135 127 128 128 125 121 124 130 132 126 129 120 120 119 116 112 109 105 104 104 107 112 117 114 110 111 110 105 101 108 106 91 96 104 111 114 116 116 117 120 125 128 131 133 134
118 131 183 246 275 131 105 196 185 162 143 147 164 176 161 126 154 140 176 153 135 127 147 158 122 135 140 133 136 139 140 138 136 137 131 130 131 128 125 123 119 111 122 135 138 139 135 136 136 135 137 136 129 125 127 131 131 127 128 131 138 141 140 126 123 119 114 116 111 107 89 92 84 95 102 115 106 102 106 115 120 108 84 73 121 118 119 121 117 118 120 123 127 131 133 136 137
215 217 267 10 129 197 123 150 200 127 139 153 186 191 162 136 147 127 141 146 129 125 122 121 135 131 128 130 135 138 138 139 141 138 137 138 138 136 135 135 134 137 147 139 143 138 136 138 138 138 138 138 132 129 131 135 137 136 132 137 139 141 136 131 128 128 124 121 117 109 124 126 120 118 100 102 103 125 133 119 108 105 115 160 141 129 125 125 125 127 132 137 142 141 138 137 143
94 289 305 318 238 130 242 139 176 144 145 156 177 189 169 139 137 154 159 149 121 132 129 141 125 120 126 136 138 141 142 142 146 139 142 145 145 146 146 149 146 148 151 145 142 141 141 139 137 139 137 137 131 131 131 134 136 123 131 143 145 150 150 141 133 129 115 124 132 123 112 119 104 90 126 146 156 139 128 120 143 153 156 144 132 131 127 125 127 134 146 154 151 160 175 153 162
193 116 227 210 229 163 148 152 130 111 137 146 156 165 164 151 152 162 144 139 139 148 141 132 129 132 138 139 144 143 143 145 143 142 145 147 143 143 143 147 147 147 145 142 141 140 144 142 139 136 135 137 133 133 131 135 137 139 145 145 148 149 150 139 145 137 138 158 162 102 122 120 109 144 143 123 122 141 155 154 159 142 137 139 137 132 133 132 134 143 149 161 179 221 271 219 165
157 222 217 203 220 164 163 204 138 127 142 142 128 110 151 187 131 161 148 144 144 133 141 137 138 140 140 143 144 146 144 144 147 149 146 147 144 140 141 141 142 141 139 139 139 146 146 142 139 136 141 134 126 133 135 142 145 149 147 138 141 148 160 159 145 128 156 173 148 123 140 97 68 64 75 354 183 156 140 130 137 147 153 162 165 155 158 157 162 163 181 214 238 203 215 225 173
185 218 203 134 215 144 145 185 161 147 133 132 127 146 139 147 103 268 162 144 143 140 136 135 139 141 143 146 145 146 148 149 152 155 148 150 146 143 140 136 139 138 135 138 140 148 149 142 141 144 138 135 138 140 139 141 146 149 145 136 142 149 162 142 152 141 160 168 115 120 86 82 86 201 160 202 172 150 124 147 162 160 164 177 188 180 162 179 154 159 185 211 224 189 189 177 166
232 221 206 178 196 146 169 148 117 131 147 150 157 139 165 169 131 95 59 274 132 140 137 139 140 144 143 143 146 148 151 152 155 152 151 148 145 144 140 140 142 139 144 136 141 147 146 143 142 144 136 142 149 150 136 150 166 150 131 131 131 139 135 120 130 165 166 139 161 139 119 141 174 183 172 179 134 102 164 180 143 86 169 170 193 211 155 161 173 162 180 204 242 236 212 177 205
237 279 241 214 179 146 147 118 124 150 154 146 109 138 162 143 136 138 184 217 208 140 138 138 142 144 146 146 150 150 153 154 155 148 153 146 148 148 142 143 140 140 141 141 144 143 140 140 146 147 144 150 152 150 146 146 162 150 136 125 122 137 149 160 150 176 132 139 151 120 134 156 161 158 177 197 181 172 185 143 147 167 174 166 168 193 163 175 136 129 181 183 236 308 143 141 128
250 284 311 143 237 142 131 148 145 144 175 149 133 106 125 121 131 142 190 173 145 153 138 140 146 147 149 149 151 152 154 155 152 152 150 150 147 140 142 139 141 143 142 148 143 144 150 141 148 142 143 147 146 147 149 151 154 115 115 120 127 139 327 322 160 150 137 131 111 113 128 157 168 170 175 194 190 209 178 127 141 152 149 136 150 180 158 140 138 207 60 38 327 343 338 51 131
197 228 279 280 170 121 134 136 139 160 159 150 119 124 184 255 173 135 163 177 143 142 142 146 147 150 151 153 151 152 156 155 153 156 149 150 148 146 140 141 143 145 144 146 146 143 151 142 148 144 146 148 151 156 141 148 151 149 144 149 157 164 179 201 189 137 130 144 132 144 154 176 203 170 185 216 184 181 153 138 135 171 160 162 185 152 127 116 119 115 207 133 76 10 312 285 288
199 200 241 244 60 136 139 128 143 133 79 135 127 133 121 236 227 139 225 205 135 146 148 149 151 151 153 150 151 158 159 157 156 155 146 152 150 147 143 144 151 140 147 145 141 143 146 146 146 145 146 149 153 154 158 165 155 163 172 169 183 164 149 149 162 154 141 116 128 139 162 196 221 221 168 172 162 136 143 172 161 141 162 185 155 147 166 133 109 147 136 44 32 313 267 290 286
187 223 235 239 228 186 109 107 116 98 17 283 146 135 142 165 264 174 195 215 145 150 151 152 152 152 152 149 152 161 153 158 152 152 151 151 152 150 146 150 145 144 151 142 137 141 152 148 144 147 150 155 152 167 177 159 152 169 157 166 166 126 111 115 144 148 138 131 117 191 194 186 204 209 178 134 139 133 154 119 95 107 87 149 174 137 137 139 144 146 123 76 35 288 287 266 256
216 207 225 223 185 70 73 104 124 132 154 211 178 132 137 146 205 152 231 174 151 152 150 154 152 153 149 150 152 164 149 161 154 151 160 146 156 147 147 152 140 147 150 139 141 155 149 149 140 142 144 149 160 158 147 146 144 151 149 137 122 140 132 151 178 142 128 138 160 171 179 177 153 155 260 109 136 155 124 108 205 133 135 100 78 178 121 121 118 142 127 155 258 309 285 251 340
248 220 243 215 160 99 117 108 119 108 170 185 218 145 175 154 170 159 198 175 155 154 154 155 153 154 150 149 155 159 152 158 167 152 160 146 160 148 148 155 141 147 145 138 148 150 154 140 142 145 143 151 145 144 153 144 153 140 139 130 155 103 129 137 126 121 134 136 132 135 142 140 130 125 125 50 282 126 112 97 74 93 123 133 102 45 66 89 151 86 83 52 270 275 288 64 40
224 213 213 219 194 103 142 134 131 117 166 196 201 184 180 150 154 254 261 195 160 156 157 154 156 155 149 149 158 154 158 163 172 152 156 152 157 153 154 151 146 144 140 146 155 146 149 144 152 138 149 146 146 139 161 136 155 141 135 144 151 149 124 129 125 125 129 131 131 129 130 122 138 153 144 178 213 117 141 157 129 116 105 106 129 152 172 161 121 98 60 40 343 280 317 267 226
234 237 199 212 175 141 127 126 148 131 179 195 138 12 155 164 144 163 260 251 153 167 160 155 158 156 152 151 164 155 161 168 160 158 151 163 162 155 159 148 147 138 148 153 150 147 146 146 148 139 147 151 127 151 137 146 127 129 125 128 115 69 50 88 97 128 114 122 128 132 137 146 152 140 115 133 106 121 101 101 115 73 55 11 130 81 22 95 114 120 106 148 90 0 20 326 307
215 245 236 195 175 136 117 151 162 130 134 167 189 163 179 183 157 163 202 231 156 171 164 160 160 156 155 154 166 155 162 167 158 163 150 175 160 157 158 148 146 146 150 152 148 149 146 147 144 144 148 143 135 143 128 135 116 112 140 148 125 119 108 148 117 124 117 82 115 132 133 127 135 131 113 97 122 128 136 115 100 80 49 57 51 54 346 128 127 124 160 106 82 33 64 232 251
209 211 250 297 164 145 113 137 146 143 139 136 149 146 173 150 177 161 204 26 340 169 169 165 162 157 156 161 165 154 166 166 163 164 155 173 160 156 156 152 142 152 143 148 150 148 147 151 149 146 143 138 136 132 138 146 126 136 143 123 140 141 150 153 117 134 125 135 160 128 136 145 141 121 108 114 111 122 91 60 90 76 39 24 44 65 292 27 46 53 103 86 132 107 301 345 28
215 200 218 201 183 152 138 153 157 150 160 128 138 119 123 151 153 171 95 29 357 245 173 169 163 159 160 165 166 155 168 169 162 164 162 166 163 155 149 155 142 148 150 147 148 145 142 157 136 130 144 140 142 135 145 145 128 181 144 143 156 134 101 114 100 106 126 120 126 128 137 138 139 123 115 117 164 97 81 72 75 74 75 34 30 23 357 52 18 313 104 107 305 105 210 21 266
229 181 204 264 169 113 136 135 150 144 148 114 118 122 142 149 153 157 122 79 344 316 339 209 165 162 165 172 164 161 168 171 159 168 161 164 159 159 149 158 143 148 150 142 140 143 133 158 131 131 151 136 144 139 158 147 155 188 155 137 148 168 118 98 122 158 118 121 132 133 137 134 134 135 129 129 123 103 103 101 92 57 19 36 48 15 27 62 176 39 307 143 171 291 246 344 275
265 113 257 266 111 113 133 143 147 134 115 90 103 117 126 145 144 154 123 140 133 282 47 284 179 165 169 180 164 163 166 169 160 171 162 163 159 160 150 157 148 150 139 143 145 145 154 158 137 147 152 137 149 155 169 160 158 180 154 161 156 169 132 145 136 135 131 128 120 124 132 132 138 134 128 131 122 110 92 92 101 84 30 63 65 75 325 44 312 147 242 67 27 333 111 213 206
221 198 213 252 210 157 143 137 144 162 134 128 117 120 129 131 153 158 125 131 155 68 147 280 296 180 171 180 164 163 163 166 166 165 166 162 164 155 154 162 155 151 141 151 152 149 161 153 150 154 154 146 156 163 176 157 152 173 164 171 167 147 100 116 95 55 126 117 115 136 133 129 136 121 116 128 138 125 130 134 131 123 129 110 121 126 126 213 209 218 128 51 23 161 265 191 186
233 170 195 276 243 94 94 127 138 161 137 138 140 135 139 161 157 137 149 126 128 177 204 236 290 233 172 177 168 160 171 166 171 166 169 166 167 156 159 163 157 152 150 158 156 150 160 149 149 159 152 153 162 155 169 155 171 171 174 168 175 135 160 143 131 128 128 129 136 132 129 137 140 132 131 136 124 129 133 136 137 142 143 155 116 184 161 179 359 254 114 106 204 239 228 133 153
227 200 184 188 236 148 155 138 148 179 161 151 159 141 138 146 225 157 157 154 174 159 190 202 205 288 194 182 171 170 175 163 173 167 172 168 168 158 162 166 160 155 154 161 161 158 161 143 151 162 155 154 162 149 178 155 174 161 167 113 8 143 116 89 107 135 116 131 136 134 134 154 151 147 144 145 136 132 138 146 153 141 146 131 166 191 154 140 218 221 109 178 238 228 152 176 200
252 227 209 221 197 219 167 148 153 186 127 141 133 105 119 166 210 208 198 184 139 173 121 150 239 259 295 318 197 176 180 166 171 170 172 172 168 165 165 167 165 159 163 164 166 165 164 157 156 165 161 152 167 149 180 143 169 151 178 112 149 102 96 100 125 128 131 123 140 154 148 158 165 145 138 137 138 144 153 148 141 158 154 184 178 177 152 194 196 159 168 223 225 255 122 157 151
223 190 216 226 212 230 135 148 152 136 137 154 148 109 189 198 196 203 182 174 164 166 152 157 233 251 289 238 273 197 181 173 172 174 173 175 169 166 165 170 172 165 168 168 169 170 163 160 159 163 163 153 169 155 173 142 148 158 166 153 146 155 145 171 165 156 157 169 161 152 150 162 161 146 147 145 136 145 143 147 162 172 183 152 228 106 178 267 141 217 175 197 182 266 49 154 134
229 195 211 203 218 231 204 141 194 156 171 173 176 139 144 182 197 202 183 170 167 153 188 158 175 202 224 232 221 229 186 172 176 176 178 179 170 171 166 179 176 169 174 168 173 171 161 159 161 166 161 166 166 156 168 149 151 172 172 176 168 159 155 156 153 172 160 152 171 143 151 151 156 153 152 139 146 148 150 159 176 201 170 160 154 175 195 212 189 222 156 257 54 49 356 324 100
217 202 197 202 193 224 245 199 228 217 145 166 192 148 135 152 205 198 165 167 160 159 174 153 169 204 205 208 204 216 207 185 177 185 180 182 172 174 172 179 181 172 176 169 174 173 155 159 162 168 162 170 167 157 171 162 159 168 182 187 170 165 174 162 175 169 121 121 157 144 157 149 160 170 143 139 151 154 157 170 191 229 125 172 153 212 195 231 174 177 102 251 72 338 27 14 6
219 218 211 197 212 214 232 218 210 236 156 164 187 129 125 150 129 69 73 80 157 180 169 201 166 180 196 195 193 201 205 29 260 187 186 180 177 173 176 179 184 175 177 170 180 163 153 158 162 170 166 171 163 159 173 171 164 174 179 185 172 185 168 164 164 168 127 140 143 177 142 150 157 135 147 156 153 153 157 163 168 148 131 232 171 198 216 247 212 139 138 165 125 183 244 79 353
226 264 225 188 198 238 238 228 221 227 229 184 179 165 117 136 133 114 139 159 166 216 182 190 192 165 172 189 181 186 175 157 274 45 345 224 179 180 178 181 188 178 177 168 178 168 163 160 167 172 169 173 164 164 174 172 174 176 176 190 180 194 161 162 168 156 155 143 171 153 135 143 161 155 156 154 157 150 159 181 171 165 162 216 154 232 193 212 169 141 164 178 179 162 60 168 181
220 204 257 214 190 208 234 255 294 261 254 231 193 177 150 140 186 139 175 159 154 194 218 204 177 176 168 166 185 170 159 176 184 351 195 292 226 182 182 187 188 183 173 170 180 168 168 169 169 175 172 175 165 166 174 174 178 181 176 189 183 191 172 158 164 150 169 149 148 149 141 162 165 158 165 157 172 170 163 174 187 164 189 171 138 237 199 180 162 168 183 165 164 138 176 231 83
210 201 217 180 175 194 209 223 214 232 226 225 243 230 136 141 148 132 147 129 151 193 181 175 162 170 176 182 184 183 161 180 179 165 233 212 286 193 187 186 193 184 172 171 183 167 169 168 169 177 172 180 169 170 176 176 180 180 180 184 189 181 186 165 167 164 171 171 167 163 156 168 169 162 172 165 176 184 159 182 170 169 148 209 161 208 203 41 202 157 130 144 174 183 179 350 235
211 181 219 193 180 196 204 202 217 220 225 207 232 209 134 88 112 127 128 132 184 77 240 188 156 152 169 177 182 180 166 154 160 166 200 218 249 194 170 201 206 188 173 172 181 174 171 168 170 177 176 179 174 176 180 177 182 177 180 183 183 184 186 177 174 169 170 178 181 165 160 170 162 191 174 166 186 180 155 182 153 165 162 198 201 105 160 116 87 23 141 174 174 171 193 177 219
223 194 197 207 192 185 219 207 223 213 220 225 222 189 77 125 113 112 116 121 140 152 171 148 156 146 156 159 168 165 162 151 163 177 195 170 220 247 178 176 203 202 183 175 182 173 171 173 170 181 176 181 176 178 182 182 185 178 182 181 181 181 183 187 177 184 174 181 188 174 176 177 173 186 173 192 176 174 159 171 175 166 173 161 148 150 158 178 161 96 225 191 169 179 193 184 204
224 212 201 199 228 189 197 213 207 214 219 209 164 208 150 149 193 135 104 104 86 103 118 68 68 93 131 158 165 182 161 128 156 166 138 217 248 232 226 189 202 200 200 185 184 173 165 166 170 178 178 182 180 181 182 186 184 183 183 183 182 179 185 187 183 190 174 179 195 189 189 175 178 189 182 182 187 141 174 162 171 173 163 163 161 176 181 148 154 146 348 126 10 190 235 188 194
189 211 224 215 221 228 235 197 216 202 208 208 164 209 124 113 150 118 128 128 117 103 105 119 123 119 109 97 127 144 153 157 168 176 163 190 241 236 226 220 198 196 206 192 184 178 165 166 171 181 181 183 181 183 184 188 185 184 181 186 184 183 185 187 181 188 179 187 190 191 184 190 181 166 192 161 207 158 164 162 169 178 165 170 172 178 186 166 165 175 166 207 195 190 210 194 238
165 194 215 234 237 253 244 271 252 238 209 193 92 100 97 124 145 146 134 119 123 126 121 102 91 102 119 122 116 126 130 182 148 165 185 207 226 226 205 222 203 201 200 207 185 181 178 161 170 179 184 185 186 186 187 188 186 185 185 187 186 187 188 191 191 191 194 191 188 191 183 197 181 167 188 173 189 176 160 159 173 180 173 170 176 179 188 176 175 181 184 212 178 211 187 196 217
282 196 213 232 246 263 273 277 221 228 233 159 142 133 145 169 145 134 134 128 93 94 104 102 103 94 86 77 95 131 135 140 140 157 201 203 213 226 188 274 223 191 201 217 177 198 183 172 171 178 183 188 188 188 189 190 188 190 187 189 190 191 191 196 195 189 196 185 186 189 192 190 191 189 194 182 176 175 170 189 172 186 169 185 183 181 186 182 183 186 193 187 205 213 183 193 208
258 335 348 281 188 215 200 201 268 209 217 163 140 142 152 163 142 164 128 130 130 125 101 103 94 84 81 80 53 27 51 139 163 158 172 205 220 206 162 207 217 216 200 211 199 209 205 187 172 182 186 191 193 189 190 189 191 194 193 193 193 192 194 199 200 186 196 188 195 187 205 184 195 195 193 176 169 169 185 184 187 193 179 176 191 189 173 183 184 191 194 191 206 199 208 206 206
257 267 253 228 291 225 200 220 280 285 216 210 141 154 143 127 136 141 133 139 126 108 101 90 86 81 67 49 30 39 30 23 75 111 130 175 189 203 204 187 193 196 207 193 218 35 28 352 42 37 315 226 203 200 191 190 192 195 193 192 194 193 195 196 202 194 190 198 198 187 202 191 187 196 198 182 170 182 183 191 193 201 193 186 184 202 185 182 187 187 205 204 194 199 200 221 227
203 231 229 212 234 339 243 202 229 230 256 208 144 109 80 106 112 135 130 131 113 113 104 91 85 85 80 67 37 30 42 57 50 40 36 10 225 169 187 204 159 81 67 71 100 132 193 176 133 173 194 221 241 234 201 198 194 196 192 189 196 196 199 197 200 205 198 198 198 198 194 206 182 196 189 196 187 191 185 192 194 198 202 181 181 189 196 173 185 186 217 224 220 177 197 209 212
260 210 237 233 198 232 212 213 202 244 252 155 139 103 116 116 151 164 149 114 124 105 99 97 91 87 78 72 70 43 59 50 41 44 32 29 50 84 78 73 61 101 102 74 70 67 106 86 112 190 187 203 297 301 277 224 203 199 202 191 197 197 201 199 202 199 206 199 198 204 193 203 193 193 188 192 192 205 193 186 202 192 207 181 175 180 197 186 177 190 203 213 234 226 192 209 209